Huntingburg, IN

3:35 PM EDT on July 26, 2017 (GMT -0400)
Huntingburg

Weather History for KHNB - March, 2013

Change the Weather History Date:

Thursday, March 21, 2013

  Actual Average Record
Temperature  
Mean Temperature 26 °F -  
Max Temperature 33 °F 53 °F 82 °F (2012)
Min Temperature 19 °F 35 °F 19 °F (2013)
Degree Days  
Heating Degree Days 39    
Moisture  
Dew Point 12 °F    
Average Humidity 57    
Maximum Humidity 69    
Minimum Humidity 41    
Precipitation  
Precipitation 0.00 in - - ()
Sea Level Pressure  
Sea Level Pressure 30.06 in    
Wind  
Wind Speed 7 mph (NW)    
Max Wind Speed 13 mph    
Max Gust Speed 18 mph    
Visibility 10 miles    
Events      
Averages and records for this station are not official NWS values.
T = Trace of Precipitation, MM = Missing Value Source: NWS Daily Summary

Daily Weather History Graph

Daily Weather History Graph

Search for Another Location

Airport or City:

Trip Planner

Search our weather history database for the weather conditions in past years. The results will help you decide how hot, cold, wet, or windy it might be!

Date:

Astronomy

Mar. 21, 2013 Rise Set
Actual Time 7:49 AM EDT 8:00 PM EDT
Civil Twilight 7:23 AM EDT 8:27 PM EDT
Nautical Twilight 6:52 AM EDT 8:58 PM EDT
Astronomical Twilight 6:20 AM EDT 9:29 PM EDT
Moon 2:34 PM EDT (3/21) 4:06 AM EDT (3/21)
Length of Visible Light 13h 04m
Length of Day
12h 11m
Waxing Gibbous, 68% of the Moon is Illuminated
Mar 21
Waxing Gibbous
Mar 27
Full
Apr 3
Last Quarter
Apr 10
New
Apr 18
First Quarter

Hourly Weather History & Observations

Time (EDT) Temp. Windchill Dew Point Humidity Pressure Visibility Wind Dir Wind Speed Gust Speed Precip Events Conditions
12:15 AM 23.0 °F 14.7 °F 12.2 °F 63% 30.09 in 10.0 mi West 6.9 mph - N/A   Clear
12:35 AM 24.8 °F 16.1 °F 12.2 °F 59% 30.09 in 10.0 mi WNW 8.1 mph - N/A   Clear
12:55 AM 23.0 °F 14.7 °F 12.2 °F 63% 30.08 in 10.0 mi West 6.9 mph - N/A   Clear
1:15 AM 23.0 °F 13.9 °F 14.0 °F 68% 30.09 in 10.0 mi West 8.1 mph - N/A   Clear
1:35 AM 24.8 °F 16.1 °F 14.0 °F 64% 30.08 in 10.0 mi WNW 8.1 mph - N/A   Clear
2:15 AM 23.0 °F 14.7 °F 12.2 °F 63% 30.07 in 10.0 mi NW 6.9 mph - N/A   Clear
2:35 AM 24.8 °F 16.9 °F 12.2 °F 59% 30.07 in 10.0 mi NW 6.9 mph - N/A   Clear
2:55 AM 24.8 °F 16.9 °F 10.4 °F 54% 30.06 in 10.0 mi NW 6.9 mph - N/A   Clear
3:15 AM 24.8 °F 16.1 °F 10.4 °F 54% 30.06 in 10.0 mi NW 8.1 mph - N/A   Clear
3:35 AM 23.0 °F 14.7 °F 12.2 °F 63% 30.07 in 10.0 mi WNW 6.9 mph - N/A   Clear
3:55 AM 21.2 °F 14.9 °F 10.4 °F 63% 30.06 in 10.0 mi NW 4.6 mph - N/A   Clear
4:15 AM 21.2 °F 13.6 °F 10.4 °F 63% 30.06 in 10.0 mi WNW 5.8 mph - N/A   Clear
4:35 AM 21.2 °F 12.6 °F 10.4 °F 63% 30.05 in 10.0 mi NW 6.9 mph - N/A   Clear
4:55 AM 21.2 °F 14.9 °F 10.4 °F 63% 30.04 in 10.0 mi WNW 4.6 mph - N/A   Clear
5:15 AM 19.4 °F 10.4 °F 10.4 °F 68% 30.03 in 10.0 mi WNW 6.9 mph - N/A   Clear
5:35 AM 21.2 °F 11.7 °F 10.4 °F 63% 30.03 in 10.0 mi NW 8.1 mph - N/A   Clear
5:55 AM 21.2 °F 10.9 °F 10.4 °F 63% 30.03 in 10.0 mi NW 9.2 mph - N/A   Clear
6:15 AM 21.2 °F 11.7 °F 10.4 °F 63% 30.04 in 10.0 mi NW 8.1 mph - N/A   Clear
6:35 AM 21.2 °F 12.6 °F 10.4 °F 63% 30.04 in 10.0 mi WNW 6.9 mph - N/A   Clear
6:55 AM 21.2 °F 12.6 °F 10.4 °F 63% 30.04 in 10.0 mi WNW 6.9 mph - N/A   Clear
7:15 AM 21.2 °F 11.7 °F 12.2 °F 68% 30.05 in 10.0 mi WNW 8.1 mph - N/A   Clear
7:35 AM 19.4 °F 11.5 °F 10.4 °F 68% 30.05 in 10.0 mi WNW 5.8 mph - N/A   Clear
7:55 AM 19.4 °F 10.4 °F 10.4 °F 68% 30.05 in 10.0 mi NW 6.9 mph - N/A   Clear
8:15 AM 21.2 °F 10.9 °F 10.4 °F 63% 30.06 in 10.0 mi NW 9.2 mph - N/A   Clear
8:55 AM 21.2 °F 8.9 °F 12.2 °F 68% 30.07 in 10.0 mi NNW 12.7 mph 18.4 mph N/A   Partly Cloudy
9:15 AM 21.2 °F 10.1 °F 12.2 °F 68% 30.08 in 10.0 mi NNW 10.4 mph - N/A   Scattered Clouds
9:35 AM 23.0 °F 11.7 °F 12.2 °F 63% 30.08 in 10.0 mi NNW 11.5 mph - N/A   Mostly Cloudy
9:55 AM 23.0 °F 13.9 °F 10.4 °F 59% 30.09 in 10.0 mi NW 8.1 mph 16.1 mph N/A   Mostly Cloudy
10:15 AM 24.8 °F 15.3 °F 10.4 °F 54% 30.10 in 10.0 mi NNW 9.2 mph - N/A   Mostly Cloudy
10:35 AM 23.0 °F 13.1 °F 10.4 °F 59% 30.10 in 10.0 mi North 9.2 mph - N/A   Mostly Cloudy
10:55 AM 24.8 °F 16.1 °F 12.2 °F 59% 30.11 in 8.0 mi North 8.1 mph - N/A   Scattered Clouds
11:15 AM 24.8 °F 14.6 °F 12.2 °F 59% 30.12 in 9.0 mi NW 10.4 mph - N/A   Partly Cloudy
11:35 AM 24.8 °F 17.9 °F 12.2 °F 59% 30.12 in 10.0 mi NNW 5.8 mph - N/A   Scattered Clouds
11:55 AM 26.6 °F 19.1 °F 14.0 °F 59% 30.11 in 10.0 mi North 6.9 mph - N/A   Scattered Clouds
12:35 PM 26.6 °F 16.2 °F 12.2 °F 55% 30.11 in 10.0 mi WNW 11.5 mph 16.1 mph N/A   Mostly Cloudy
12:55 PM 26.6 °F 19.1 °F 14.0 °F 59% 30.10 in 10.0 mi WNW 6.9 mph 16.1 mph N/A   Mostly Cloudy
1:15 PM 28.4 °F 19.1 °F 14.0 °F 55% 30.10 in 10.0 mi NW 10.4 mph 17.3 mph N/A   Partly Cloudy
1:35 PM 28.4 °F 19.1 °F 12.2 °F 51% 30.10 in 10.0 mi WNW 10.4 mph - N/A   Clear
2:35 PM 30.2 °F 22.6 °F 12.2 °F 47% 30.09 in 10.0 mi NW 8.1 mph - N/A   Clear
2:55 PM 30.2 °F 23.4 °F 12.2 °F 47% 30.08 in 10.0 mi North 6.9 mph - N/A   Clear
3:15 PM 32.0 °F 25.6 °F 12.2 °F 44% 30.08 in 10.0 mi WNW 6.9 mph - N/A   Clear
3:35 PM 30.2 °F 23.4 °F 12.2 °F 47% 30.07 in 10.0 mi WNW 6.9 mph - N/A   Clear
3:55 PM 32.0 °F 25.6 °F 12.2 °F 44% 30.06 in 10.0 mi NNE 6.9 mph - N/A   Clear
4:15 PM 32.0 °F 27.5 °F 15.8 °F 51% 30.06 in 10.0 mi NW 4.6 mph - N/A   Clear
4:55 PM 33.8 °F 28.6 °F 15.8 °F 48% 30.04 in 10.0 mi West 5.8 mph - N/A   Clear
5:15 PM 33.8 °F 27.7 °F 14.0 °F 44% 30.04 in 10.0 mi North 6.9 mph - N/A   Clear
5:35 PM 32.0 °F - 12.2 °F 44% 30.03 in 10.0 mi Calm Calm - N/A   Clear
5:55 PM 33.8 °F 30.8 °F 12.2 °F 41% 30.03 in 10.0 mi NNW 3.5 mph - N/A   Clear
6:15 PM 33.8 °F - 12.2 °F 41% 30.02 in 10.0 mi Calm Calm - N/A   Clear
6:35 PM 33.8 °F - 12.2 °F 41% 30.02 in 10.0 mi Calm Calm - N/A   Clear
6:55 PM 32.0 °F 27.5 °F 12.2 °F 44% 30.02 in 10.0 mi NNE 4.6 mph - N/A   Clear
7:15 PM 30.2 °F 26.7 °F 10.4 °F 44% 30.02 in 10.0 mi NNE 3.5 mph - N/A   Clear
7:35 PM 30.2 °F - 12.2 °F 47% 30.03 in 10.0 mi Calm Calm - N/A   Clear
7:55 PM 30.2 °F - 10.4 °F 44% 30.03 in 10.0 mi Calm Calm - N/A   Clear
8:15 PM 30.2 °F - 10.4 °F 44% 30.04 in 10.0 mi Calm Calm - N/A   Clear
8:35 PM 30.2 °F - 12.2 °F 47% 30.04 in 10.0 mi Calm Calm - N/A   Clear
8:55 PM 30.2 °F - 12.2 °F 47% 30.05 in 10.0 mi Calm Calm - N/A   Clear
9:15 PM 28.4 °F 23.3 °F 15.8 °F 59% 30.06 in 10.0 mi WNW 4.6 mph - N/A   Clear
9:35 PM 28.4 °F 24.6 °F 15.8 °F 59% 30.06 in 10.0 mi NW 3.5 mph - N/A   Clear
9:55 PM 26.6 °F 22.6 °F 15.8 °F 64% 30.06 in 10.0 mi WNW 3.5 mph - N/A   Clear
10:15 PM 26.6 °F - 17.6 °F 69% 30.06 in 10.0 mi Calm Calm - N/A   Clear
10:55 PM 24.8 °F - 15.8 °F 69% 30.07 in 10.0 mi Calm Calm - N/A   Clear
11:15 PM 26.6 °F - 17.6 °F 69% 30.07 in 10.0 mi Calm Calm - N/A   Clear
11:35 PM 24.8 °F 20.5 °F 14.0 °F 64% 30.07 in 10.0 mi NNE 3.5 mph - N/A   Clear
11:55 PM 24.8 °F 19.1 °F 14.0 °F 64% 30.06 in 10.0 mi NNE 4.6 mph - N/A   Clear